Private Wetterstation Wechselburg
Wetterdaten: Freitag, 02.07.2010
Datum Zeit Temp. +2m Bodentemp. Temp.+5cm Temp. Wind Windchill X Diff Temp. Feuchte +2m Feuchte +5cm Sonnenschein Luftdruck Regen Wind Richtung Richtung Sonnenschein UV Taupunkt Windchill Windben
02.07.2010 00:00 21,5 C 21,9 C 19,5 C 20,0 C 17,1 C 0,0 C 74 % 81 % 0 % 1015,2 hPa 0,0 l/m 0,0 km/h (0 Bft) W-SW 247 0 min 0,0 UV-I 16,7 C 17,1 C 0,0 km/h (0 Bft)
02.07.2010 00:06 21,4 C 21,9 C 19,1 C 19,9 C 17,0 C 0,0 C 74 % 82 % 0 % 1015,2 hPa 0,0 l/m 0,0 km/h (0 Bft) N 0 0 min 0,0 UV-I 16,6 C 17,0 C 0,0 km/h (0 Bft)
02.07.2010 00:10 21,4 C 21,9 C 19,1 C 19,9 C 17,0 C 0,0 C 74 % 82 % 0 % 1015,2 hPa 0,0 l/m 0,0 km/h (0 Bft) W-SW 247 0 min 0,0 UV-I 16,6 C 17,0 C 0,0 km/h (0 Bft)
02.07.2010 00:15 21,3 C 21,9 C 19,1 C 19,8 C 16,9 C 0,0 C 74 % 82 % 0 % 1015,2 hPa 0,0 l/m 0,0 km/h (0 Bft) W-SW 247 0 min 0,0 UV-I 16,5 C 16,9 C 0,0 km/h (0 Bft)
02.07.2010 00:20 21,1 C 21,9 C 18,9 C 19,7 C 16,8 C 0,0 C 74 % 82 % 0 % 1015,4 hPa 0,0 l/m 0,0 km/h (0 Bft) SW 225 0 min 0,0 UV-I 16,3 C 16,8 C 0,0 km/h (0 Bft)
02.07.2010 00:25 21,1 C 21,9 C 18,8 C 19,6 C 16,7 C 0,0 C 74 % 82 % 0 % 1015,4 hPa 0,0 l/m 0,0 km/h (0 Bft) W 270 0 min 0,0 UV-I 16,3 C 16,7 C 0,0 km/h (0 Bft)
02.07.2010 00:30 20,9 C 21,9 C 18,7 C 19,5 C 16,6 C 0,0 C 75 % 83 % 0 % 1015,4 hPa 0,0 l/m 0,0 km/h (0 Bft) SW 225 0 min 0,0 UV-I 16,3 C 16,6 C 0,0 km/h (0 Bft)
02.07.2010 00:35 20,7 C 21,9 C 18,6 C 19,3 C 16,6 C 0,0 C 74 % 83 % 0 % 1015,4 hPa 0,0 l/m 0,0 km/h (0 Bft) S-SW 202 0 min 0,0 UV-I 15,9 C 16,6 C 0,0 km/h (0 Bft)
02.07.2010 00:40 20,7 C 21,9 C 18,5 C 19,3 C 16,5 C 0,0 C 75 % 84 % 0 % 1015,6 hPa 0,0 l/m 0,0 km/h (0 Bft) SW 225 0 min 0,0 UV-I 16,1 C 16,5 C 0,0 km/h (0 Bft)
02.07.2010 00:45 20,5 C 21,9 C 18,4 C 19,2 C 16,5 C 0,0 C 75 % 84 % 0 % 1015,6 hPa 0,0 l/m 0,0 km/h (0 Bft) S-SW 202 0 min 0,0 UV-I 15,9 C 16,5 C 0,0 km/h (0 Bft)
02.07.2010 00:50 20,4 C 21,9 C 18,4 C 19,1 C 16,5 C 0,0 C 76 % 84 % 0 % 1015,6 hPa 0,0 l/m 0,0 km/h (0 Bft) SW 225 0 min 0,0 UV-I 16,0 C 16,5 C 0,0 km/h (0 Bft)
02.07.2010 00:55 20,4 C 21,8 C 18,4 C 19,1 C 16,5 C 0,0 C 76 % 84 % 0 % 1015,6 hPa 0,0 l/m 0,0 km/h (0 Bft) SW 225 0 min 0,0 UV-I 16,0 C 16,5 C 0,0 km/h (0 Bft)
02.07.2010 01:00 20,4 C 21,8 C 18,4 C 19,1 C 16,5 C 0,0 C 76 % 84 % 0 % 1015,4 hPa 0,0 l/m 0,2 km/h (0 Bft) SW 225 0 min 0,0 UV-I 16,0 C 16,5 C 0,0 km/h (0 Bft)
02.07.2010 01:10 20,3 C 21,8 C 18,4 C 19,0 C 16,3 C 0,0 C 76 % 84 % 0 % 1015,4 hPa 0,0 l/m 0,0 km/h (0 Bft) SW 225 0 min 0,0 UV-I 15,9 C 16,3 C 0,0 km/h (0 Bft)
02.07.2010 01:15 20,3 C 21,8 C 18,4 C 19,0 C 16,3 C 0,0 C 76 % 84 % 0 % 1015,4 hPa 0,0 l/m 0,0 km/h (0 Bft) SW 225 0 min 0,0 UV-I 15,9 C 16,3 C 0,0 km/h (0 Bft)
02.07.2010 01:20 20,0 C 21,9 C 18,4 C 18,7 C 16,2 C 0,0 C 76 % 84 % 0 % 1015,4 hPa 0,0 l/m 0,0 km/h (0 Bft) SW 225 0 min 0,0 UV-I 15,6 C 16,2 C 0,0 km/h (0 Bft)
02.07.2010 01:25 20,0 C 21,9 C 18,4 C 18,7 C 16,1 C 0,0 C 76 % 84 % 0 % 1015,4 hPa 0,0 l/m 0,0 km/h (0 Bft) SW 225 0 min 0,0 UV-I 15,6 C 16,1 C 0,0 km/h (0 Bft)
02.07.2010 01:30 19,8 C 21,8 C 18,4 C 18,6 C 16,1 C 0,0 C 77 % 84 % 0 % 1015,4 hPa 0,0 l/m 0,0 km/h (0 Bft) SW 225 0 min 0,0 UV-I 15,6 C 16,1 C 0,0 km/h (0 Bft)
02.07.2010 01:35 19,9 C 21,8 C 18,4 C 18,6 C 16,0 C 0,0 C 77 % 84 % 0 % 1015,4 hPa 0,0 l/m 0,0 km/h (0 Bft) W 270 0 min 0,0 UV-I 15,7 C 16,0 C 0,0 km/h (0 Bft)
02.07.2010 01:40 19,8 C 21,7 C 18,4 C 18,5 C 15,9 C 0,0 C 76 % 84 % 0 % 1015,4 hPa 0,0 l/m 0,0 km/h (0 Bft) W 270 0 min 0,0 UV-I 15,4 C 15,9 C 0,0 km/h (0 Bft)
02.07.2010 01:45 19,9 C 21,7 C 17,7 C 18,5 C 15,8 C 0,0 C 77 % 85 % 0 % 1015,4 hPa 0,0 l/m 0,0 km/h (0 Bft) W 270 0 min 0,0 UV-I 15,7 C 15,8 C 0,0 km/h (0 Bft)
02.07.2010 01:50 19,8 C 21,7 C 17,7 C 18,5 C 15,8 C 0,0 C 77 % 85 % 0 % 1015,4 hPa 0,0 l/m 0,0 km/h (0 Bft) W 270 0 min 0,0 UV-I 15,6 C 15,8 C 0,0 km/h (0 Bft)
02.07.2010 01:55 19,7 C 21,7 C 17,7 C 18,4 C 15,7 C 0,0 C 77 % 85 % 0 % 1015,4 hPa 0,0 l/m 0,0 km/h (0 Bft) W 270 0 min 0,0 UV-I 15,5 C 15,7 C 0,0 km/h (0 Bft)
02.07.2010 02:00 19,6 C 21,7 C 17,7 C 18,3 C 15,6 C 0,0 C 77 % 85 % 0 % 1015,6 hPa 0,0 l/m 0,0 km/h (0 Bft) W 270 0 min 0,0 UV-I 15,5 C 15,6 C 0,0 km/h (0 Bft)
02.07.2010 02:10 19,3 C 21,8 C 17,7 C 18,0 C 15,4 C 0,0 C 78 % 85 % 0 % 1015,6 hPa 0,0 l/m 0,0 km/h (0 Bft) W 270 0 min 0,0 UV-I 15,4 C 15,4 C 0,0 km/h (0 Bft)
02.07.2010 02:15 19,2 C 22,0 C 17,7 C 17,9 C 15,4 C 0,0 C 78 % 85 % 0 % 1015,6 hPa 0,0 l/m 0,0 km/h (0 Bft) W 270 0 min 0,0 UV-I 15,3 C 15,4 C 0,0 km/h (0 Bft)
02.07.2010 02:20 19,2 C 21,8 C 17,7 C 17,9 C 15,3 C 0,0 C 78 % 85 % 0 % 1015,5 hPa 0,0 l/m 0,0 km/h (0 Bft) W-SW 247 0 min 0,0 UV-I 15,3 C 15,3 C 0,0 km/h (0 Bft)
02.07.2010 02:25 19,3 C 21,8 C 17,7 C 18,0 C 15,3 C 0,0 C 78 % 85 % 0 % 1015,5 hPa 0,0 l/m 0,0 km/h (0 Bft) W-SW 247 0 min 0,0 UV-I 15,4 C 15,3 C 0,0 km/h (0 Bft)
02.07.2010 02:30 19,2 C 21,7 C 17,2 C 17,9 C 15,2 C 0,0 C 78 % 86 % 0 % 1015,5 hPa 0,0 l/m 0,0 km/h (0 Bft) W-SW 247 0 min 0,0 UV-I 15,3 C 15,2 C 0,0 km/h (0 Bft)
02.07.2010 02:35 19,2 C 21,7 C 17,2 C 17,9 C 15,2 C 0,0 C 78 % 86 % 0 % 1015,5 hPa 0,0 l/m 0,0 km/h (0 Bft) W-SW 247 0 min 0,0 UV-I 15,3 C 15,2 C 0,0 km/h (0 Bft)
02.07.2010 02:40 19,1 C 21,7 C 17,2 C 17,8 C 15,1 C 0,0 C 78 % 85 % 0 % 1015,6 hPa 0,0 l/m 0,0 km/h (0 Bft) W-SW 247 0 min 0,0 UV-I 15,2 C 15,1 C 0,0 km/h (0 Bft)
02.07.2010 02:45 19,1 C 21,8 C 17,2 C 17,8 C 15,1 C 0,0 C 78 % 85 % 0 % 1015,6 hPa 0,0 l/m 0,0 km/h (0 Bft) W-SW 247 0 min 0,0 UV-I 15,2 C 15,1 C 0,0 km/h (0 Bft)
02.07.2010 02:50 18,9 C 21,7 C 17,2 C 17,6 C 15,1 C 0,0 C 78 % 85 % 0 % 1015,6 hPa 0,0 l/m 0,0 km/h (0 Bft) W-SW 247 0 min 0,0 UV-I 15,0 C 15,1 C 0,0 km/h (0 Bft)
02.07.2010 02:55 18,9 C 21,7 C 17,2 C 17,6 C 15,1 C 0,0 C 79 % 85 % 0 % 1015,6 hPa 0,0 l/m 0,0 km/h (0 Bft) W-SW 247 0 min 0,0 UV-I 15,2 C 15,1 C 0,0 km/h (0 Bft)
02.07.2010 03:00 18,9 C 21,7 C 17,2 C 17,6 C 15,1 C 0,0 C 78 % 85 % 0 % 1015,7 hPa 0,0 l/m 0,0 km/h (0 Bft) W-SW 247 0 min 0,0 UV-I 15,0 C 15,1 C 0,0 km/h (0 Bft)
02.07.2010 03:10 18,6 C 21,8 C 17,2 C 17,4 C 15,1 C 0,0 C 78 % 85 % 0 % 1015,7 hPa 0,0 l/m 0,0 km/h (0 Bft) W-SW 247 0 min 0,0 UV-I 14,7 C 15,1 C 0,0 km/h (0 Bft)
02.07.2010 03:15 18,6 C 21,8 C 17,2 C 17,4 C 15,1 C 0,0 C 79 % 85 % 0 % 1015,7 hPa 0,0 l/m 0,0 km/h (0 Bft) W-SW 247 0 min 0,0 UV-I 14,9 C 15,1 C 0,0 km/h (0 Bft)
02.07.2010 03:20 18,5 C 21,7 C 17,2 C 17,4 C 15,1 C 0,0 C 79 % 85 % 0 % 1015,5 hPa 0,0 l/m 0,0 km/h (0 Bft) W-SW 247 0 min 0,0 UV-I 14,8 C 15,1 C 0,0 km/h (0 Bft)
02.07.2010 03:25 18,4 C 21,7 C 17,2 C 17,3 C 15,1 C 0,0 C 80 % 85 % 0 % 1015,5 hPa 0,0 l/m 0,0 km/h (0 Bft) W-SW 247 0 min 0,0 UV-I 14,9 C 15,1 C 0,0 km/h (0 Bft)
02.07.2010 03:30 18,5 C 21,7 C 16,8 C 17,4 C 15,1 C 0,0 C 80 % 87 % 0 % 1015,5 hPa 0,0 l/m 0,0 km/h (0 Bft) W-SW 247 0 min 0,0 UV-I 15,0 C 15,1 C 0,0 km/h (0 Bft)
02.07.2010 03:35 18,5 C 21,7 C 16,8 C 17,4 C 15,1 C 0,0 C 80 % 87 % 0 % 1015,5 hPa 0,0 l/m 0,0 km/h (0 Bft) W-SW 247 0 min 0,0 UV-I 15,0 C 15,1 C 0,0 km/h (0 Bft)
02.07.2010 03:40 18,5 C 21,6 C 16,8 C 17,3 C 15,0 C 0,0 C 80 % 87 % 0 % 1015,6 hPa 0,0 l/m 0,0 km/h (0 Bft) W-SW 247 0 min 0,0 UV-I 15,0 C 15,0 C 0,0 km/h (0 Bft)
02.07.2010 03:45 18,5 C 21,7 C 16,8 C 17,3 C 15,0 C 0,0 C 80 % 87 % 0 % 1015,6 hPa 0,0 l/m 0,0 km/h (0 Bft) W-SW 247 0 min 0,0 UV-I 15,0 C 15,0 C 0,0 km/h (0 Bft)
02.07.2010 03:50 18,2 C 21,7 C 16,8 C 17,2 C 15,1 C 0,0 C 80 % 87 % 0 % 1015,6 hPa 0,0 l/m 0,0 km/h (0 Bft) W-SW 247 0 min 0,0 UV-I 14,7 C 15,1 C 0,0 km/h (0 Bft)
02.07.2010 03:55 18,1 C 21,7 C 16,8 C 17,1 C 15,1 C 0,0 C 80 % 87 % 0 % 1015,6 hPa 0,0 l/m 0,0 km/h (0 Bft) W-SW 247 0 min 0,0 UV-I 14,6 C 15,1 C 0,0 km/h (0 Bft)
02.07.2010 04:00 18,3 C 21,5 C 16,8 C 17,2 C 15,0 C 0,0 C 80 % 87 % 0 % 1015,7 hPa 0,0 l/m 0,0 km/h (0 Bft) W-SW 247 0 min 0,0 UV-I 14,8 C 15,0 C 0,0 km/h (0 Bft)
02.07.2010 04:10 18,4 C 21,5 C 16,8 C 17,3 C 15,0 C 0,0 C 80 % 87 % 0 % 1015,7 hPa 0,0 l/m 0,0 km/h (0 Bft) W-SW 247 0 min 0,0 UV-I 14,9 C 15,0 C 0,0 km/h (0 Bft)
02.07.2010 04:15 18,3 C 21,5 C 16,8 C 17,2 C 15,0 C 0,0 C 79 % 87 % 0 % 1015,7 hPa 0,0 l/m 0,0 km/h (0 Bft) W-SW 247 0 min 0,0 UV-I 14,6 C 15,0 C 0,0 km/h (0 Bft)
02.07.2010 04:20 18,2 C 21,5 C 16,8 C 17,1 C 14,9 C 0,0 C 79 % 87 % 0 % 1015,8 hPa 0,0 l/m 0,0 km/h (0 Bft) W-SW 247 0 min 0,0 UV-I 14,5 C 14,9 C 0,0 km/h (0 Bft)
02.07.2010 04:25 18,2 C 21,4 C 16,8 C 17,1 C 14,8 C 0,0 C 79 % 87 % 0 % 1015,8 hPa 0,0 l/m 0,0 km/h (0 Bft) W-SW 247 0 min 0,0 UV-I 14,5 C 14,8 C 0,0 km/h (0 Bft)
02.07.2010 04:30 18,3 C 21,5 C 16,5 C 17,1 C 14,7 C 0,0 C 80 % 87 % 0 % 1015,8 hPa 0,0 l/m 0,0 km/h (0 Bft) W-SW 247 0 min 0,0 UV-I 14,8 C 14,7 C 0,0 km/h (0 Bft)
02.07.2010 04:35 18,1 C 21,5 C 16,5 C 17,0 C 14,7 C 0,0 C 79 % 87 % 0 % 1015,8 hPa 0,0 l/m 0,0 km/h (0 Bft) W-SW 247 0 min 0,0 UV-I 14,4 C 14,7 C 0,0 km/h (0 Bft)
02.07.2010 04:40 18,0 C 21,5 C 16,4 C 16,9 C 14,7 C 0,0 C 80 % 87 % 0 % 1015,6 hPa 0,0 l/m 0,0 km/h (0 Bft) W-SW 247 0 min 0,0 UV-I 14,5 C 14,7 C 0,0 km/h (0 Bft)
02.07.2010 04:45 18,0 C 21,5 C 16,4 C 16,9 C 14,7 C 0,0 C 80 % 87 % 0 % 1015,6 hPa 0,0 l/m 0,0 km/h (0 Bft) W-SW 247 0 min 0,0 UV-I 14,5 C 14,7 C 0,0 km/h (0 Bft)
02.07.2010 04:50 17,8 C 21,5 C 16,4 C 16,8 C 14,7 C 0,0 C 81 % 87 % 0 % 1015,6 hPa 0,0 l/m 0,0 km/h (0 Bft) W-SW 247 0 min 0,0 UV-I 14,5 C 14,7 C 0,0 km/h (0 Bft)
02.07.2010 04:55 17,6 C 21,5 C 16,4 C 16,6 C 14,7 C 0,0 C 81 % 87 % 0 % 1015,6 hPa 0,0 l/m 0,0 km/h (0 Bft) W-SW 247 0 min 0,0 UV-I 14,3 C 14,7 C 0,0 km/h (0 Bft)
02.07.2010 05:00 17,8 C 21,5 C 16,4 C 16,8 C 14,7 C 0,0 C 81 % 87 % 0 % 1015,3 hPa 0,0 l/m 0,0 km/h (0 Bft) W-SW 247 0 min 0,0 UV-I 14,5 C 14,7 C 0,0 km/h (0 Bft)
02.07.2010 05:07 17,9 C 21,4 C 16,4 C 16,8 C 14,6 C 0,0 C 81 % 87 % 0 % 1015,3 hPa 0,0 l/m 0,0 km/h (0 Bft) N 0 0 min 0,0 UV-I 14,6 C 14,6 C 0,0 km/h (0 Bft)
02.07.2010 05:10 17,9 C 21,4 C 16,4 C 16,8 C 14,6 C 0,0 C 81 % 87 % 0 % 1015,3 hPa 0,0 l/m 0,0 km/h (0 Bft) W-SW 247 0 min 0,0 UV-I 14,6 C 14,6 C 0,0 km/h (0 Bft)
02.07.2010 05:15 17,9 C 21,3 C 16,4 C 16,8 C 14,6 C 0,0 C 81 % 87 % 0 % 1015,3 hPa 0,0 l/m 0,0 km/h (0 Bft) W-SW 247 0 min 0,0 UV-I 14,6 C 14,6 C 0,0 km/h (0 Bft)
02.07.2010 05:20 18,0 C 21,3 C 16,2 C 16,8 C 14,5 C 0,0 C 80 % 87 % 0 % 1015,4 hPa 0,0 l/m 0,0 km/h (0 Bft) W-SW 247 0 min 0,0 UV-I 14,5 C 14,5 C 0,0 km/h (0 Bft)
02.07.2010 05:25 17,9 C 21,3 C 16,1 C 16,8 C 14,5 C 0,0 C 80 % 87 % 0 % 1015,4 hPa 0,0 l/m 0,0 km/h (0 Bft) W-SW 247 0 min 0,0 UV-I 14,4 C 14,5 C 0,0 km/h (0 Bft)
02.07.2010 05:30 17,9 C 21,3 C 16,1 C 16,8 C 14,5 C 0,0 C 80 % 87 % 0 % 1015,4 hPa 0,0 l/m 0,0 km/h (0 Bft) W-SW 247 0 min 0,0 UV-I 14,4 C 14,5 C 0,0 km/h (0 Bft)
02.07.2010 05:35 17,8 C 21,3 C 16,1 C 16,7 C 14,5 C 0,0 C 80 % 87 % 0 % 1015,4 hPa 0,0 l/m 0,0 km/h (0 Bft) W-SW 247 0 min 0,0 UV-I 14,3 C 14,5 C 0,0 km/h (0 Bft)
02.07.2010 05:40 17,9 C 21,3 C 16,1 C 16,8 C 14,6 C 0,0 C 80 % 87 % 0 % 1015,4 hPa 0,0 l/m 0,0 km/h (0 Bft) W-SW 247 0 min 0,0 UV-I 14,4 C 14,6 C 0,0 km/h (0 Bft)
02.07.2010 05:45 17,9 C 21,3 C 16,1 C 16,8 C 14,7 C 0,0 C 80 % 87 % 0 % 1015,4 hPa 0,0 l/m 0,0 km/h (0 Bft) W-SW 247 0 min 0,0 UV-I 14,4 C 14,7 C 0,0 km/h (0 Bft)
02.07.2010 05:50 17,9 C 21,2 C 16,1 C 16,8 C 14,7 C 0,0 C 80 % 87 % 0 % 1015,4 hPa 0,0 l/m 0,0 km/h (0 Bft) W-SW 247 0 min 0,0 UV-I 14,4 C 14,7 C 0,0 km/h (0 Bft)
02.07.2010 05:55 17,9 C 21,3 C 16,1 C 16,9 C 14,8 C 0,0 C 80 % 87 % 0 % 1015,4 hPa 0,0 l/m 0,0 km/h (0 Bft) W-SW 247 0 min 0,0 UV-I 14,4 C 14,8 C 0,0 km/h (0 Bft)
02.07.2010 06:00 17,8 C 21,3 C 16,1 C 16,8 C 14,9 C 0,0 C 80 % 87 % 0 % 1015,6 hPa 0,0 l/m 0,0 km/h (0 Bft) W-SW 247 0 min 0,0 UV-I 14,3 C 14,9 C 0,0 km/h (0 Bft)
02.07.2010 06:07 17,8 C 21,2 C 16,1 C 16,9 C 15,0 C 0,0 C 81 % 87 % 0 % 1015,6 hPa 0,0 l/m 0,0 km/h (0 Bft) SW 225 0 min 0,0 UV-I 14,5 C 15,0 C 0,0 km/h (0 Bft)
02.07.2010 06:10 17,8 C 21,2 C 16,1 C 16,9 C 15,0 C 0,0 C 81 % 87 % 0 % 1015,6 hPa 0,0 l/m 0,0 km/h (0 Bft) SW 225 0 min 0,0 UV-I 14,5 C 15,0 C 0,0 km/h (0 Bft)
02.07.2010 06:15 18,0 C 21,2 C 16,1 C 17,0 C 15,1 C 0,0 C 81 % 87 % 0 % 1015,6 hPa 0,0 l/m 0,2 km/h (0 Bft) SW 225 0 min 0,0 UV-I 14,7 C 15,1 C 0,0 km/h (0 Bft)
02.07.2010 06:20 18,3 C 21,2 C 16,1 C 17,2 C 15,1 C 0,0 C 80 % 87 % 0 % 1015,4 hPa 0,0 l/m 0,2 km/h (0 Bft) W-SW 247 0 min 0,0 UV-I 14,8 C 15,1 C 1,9 km/h (1 Bft)
02.07.2010 06:25 18,5 C 21,1 C 16,1 C 17,4 C 15,2 C 0,0 C 80 % 87 % 0 % 1015,4 hPa 0,0 l/m 0,0 km/h (0 Bft) W-SW 247 0 min 0,0 UV-I 15,0 C 15,2 C 0,0 km/h (0 Bft)
02.07.2010 06:30 18,9 C 21,1 C 16,1 C 17,7 C 15,3 C 0,0 C 79 % 87 % 0 % 1015,4 hPa 0,0 l/m 0,0 km/h (0 Bft) W-SW 247 0 min 0,0 UV-I 15,2 C 15,3 C 0,0 km/h (0 Bft)
02.07.2010 06:35 18,8 C 21,1 C 16,1 C 17,7 C 15,4 C 0,0 C 78 % 87 % 0 % 1015,4 hPa 0,0 l/m 0,5 km/h (0 Bft) W-SW 247 0 min 0,0 UV-I 14,9 C 15,4 C 0,0 km/h (0 Bft)
02.07.2010 06:40 18,8 C 21,1 C 16,1 C 17,7 C 15,6 C 0,0 C 78 % 87 % 0 % 1015,5 hPa 0,0 l/m 0,8 km/h (0 Bft) SW 225 0 min 0,0 UV-I 14,9 C 15,6 C 2,1 km/h (1 Bft)
02.07.2010 06:45 19,0 C 21,1 C 16,1 C 17,9 C 15,6 C 0,0 C 78 % 87 % 0 % 1015,5 hPa 0,0 l/m 0,5 km/h (0 Bft) W-SW 247 0 min 0,0 UV-I 15,1 C 15,6 C 0,0 km/h (0 Bft)
02.07.2010 06:50 19,2 C 21,0 C 16,1 C 18,1 C 15,9 C 0,0 C 78 % 87 % 0 % 1015,5 hPa 0,0 l/m 0,0 km/h (0 Bft) W-SW 247 0 min 0,0 UV-I 15,3 C 15,9 C 0,0 km/h (0 Bft)
02.07.2010 06:55 19,2 C 21,0 C 16,1 C 18,2 C 16,2 C 0,0 C 78 % 87 % 0 % 1015,5 hPa 0,0 l/m 0,2 km/h (0 Bft) W-SW 247 0 min 0,0 UV-I 15,3 C 16,2 C 0,0 km/h (0 Bft)
02.07.2010 07:00 20,0 C 20,9 C 16,1 C 19,3 C 18,0 C 0,0 C 77 % 87 % 0 % 1015,4 hPa 0,0 l/m 0,2 km/h (0 Bft) W-SW 247 0 min 0,0 UV-I 15,8 C 18,0 C 0,0 km/h (0 Bft)
02.07.2010 07:07 20,8 C 20,8 C 16,1 C 22,0 C 22,0 C 1,2 C 74 % 87 % 32 % 1015,4 hPa 0,0 l/m 0,2 km/h (0 Bft) N 0 0 min 0,0 UV-I 16,0 C 22,0 C 0,0 km/h (0 Bft)
02.07.2010 07:10 20,8 C 20,8 C 16,1 C 22,0 C 22,0 C 1,2 C 74 % 87 % 32 % 1015,4 hPa 0,0 l/m 0,2 km/h (0 Bft) S-SW 202 0 min 0,0 UV-I 16,0 C 22,0 C 0,0 km/h (0 Bft)
02.07.2010 07:15 21,3 C 20,8 C 16,1 C 23,1 C 23,1 C 1,8 C 73 % 87 % 47 % 1015,4 hPa 0,0 l/m 0,3 km/h (0 Bft) SW 225 0 min 0,0 UV-I 16,3 C 23,1 C 2,1 km/h (1 Bft)
02.07.2010 07:20 21,5 C 20,7 C 16,1 C 23,7 C 23,7 C 2,2 C 72 % 87 % 58 % 1015,3 hPa 0,0 l/m 0,6 km/h (0 Bft) W-SW 247 0 min 0,1 UV-I 16,2 C 23,7 C 2,3 km/h (1 Bft)
02.07.2010 07:25 21,2 C 20,7 C 16,1 C 24,3 C 24,3 C 3,1 C 72 % 87 % 82 % 1015,3 hPa 0,0 l/m 0,5 km/h (0 Bft) W-NW 292 0 min 0,1 UV-I 15,9 C 24,3 C 0,0 km/h (0 Bft)
02.07.2010 07:30 21,2 C 20,7 C 16,1 C 25,8 C 25,8 C 4,6 C 73 % 87 % 100 % 1015,3 hPa 0,0 l/m 0,0 km/h (0 Bft) W-NW 292 5 min 0,1 UV-I 16,2 C 25,8 C 0,0 km/h (0 Bft)
02.07.2010 07:35 21,3 C 20,7 C 16,1 C 26,5 C 26,5 C 5,2 C 73 % 87 % 100 % 1015,3 hPa 0,0 l/m 0,0 km/h (0 Bft) W 270 5 min 0,1 UV-I 16,3 C 26,5 C 0,0 km/h (0 Bft)
02.07.2010 07:40 21,3 C 20,7 C 16,1 C 27,1 C 27,1 C 5,8 C 73 % 87 % 100 % 1015,6 hPa 0,0 l/m 0,0 km/h (0 Bft) W-SW 247 5 min 0,2 UV-I 16,3 C 27,1 C 0,0 km/h (0 Bft)
02.07.2010 07:45 21,4 C 20,7 C 16,1 C 27,4 C 27,4 C 6,0 C 73 % 87 % 100 % 1015,6 hPa 0,0 l/m 0,2 km/h (0 Bft) S 180 5 min 0,2 UV-I 16,4 C 27,4 C 2,3 km/h (1 Bft)
02.07.2010 07:50 21,6 C 20,7 C 16,1 C 27,7 C 27,7 C 6,1 C 73 % 87 % 100 % 1015,6 hPa 0,0 l/m 0,8 km/h (0 Bft) W-SW 247 5 min 0,2 UV-I 16,5 C 27,7 C 2,4 km/h (1 Bft)
02.07.2010 07:55 21,6 C 20,6 C 16,1 C 27,9 C 27,9 C 6,3 C 72 % 87 % 100 % 1015,6 hPa 0,0 l/m 1,4 km/h (1 Bft) SW 225 5 min 0,2 UV-I 16,3 C 27,9 C 2,6 km/h (1 Bft)
02.07.2010 08:00 21,8 C 20,6 C 16,1 C 28,0 C 28,0 C 6,2 C 73 % 87 % 100 % 1015,8 hPa 0,0 l/m 1,3 km/h (1 Bft) SW 225 5 min 0,3 UV-I 16,7 C 28,0 C 3,1 km/h (1 Bft)
02.07.2010 08:07 22,1 C 20,6 C 16,1 C 29,4 C 29,4 C 7,3 C 72 % 87 % 100 % 1015,8 hPa 0,0 l/m 0,2 km/h (0 Bft) S-SW 202 7 min 0,4 UV-I 16,8 C 29,4 C 1,9 km/h (1 Bft)
02.07.2010 08:10 22,1 C 20,6 C 16,1 C 29,4 C 29,4 C 7,3 C 72 % 87 % 100 % 1015,8 hPa 0,0 l/m 0,2 km/h (0 Bft) S-SW 202 3 min 0,4 UV-I 16,8 C 29,4 C 1,9 km/h (1 Bft)
02.07.2010 08:15 22,0 C 20,6 C 16,1 C 29,5 C 29,5 C 7,5 C 72 % 87 % 100 % 1015,8 hPa 0,0 l/m 0,5 km/h (0 Bft) W-SW 247 5 min 0,4 UV-I 16,7 C 29,5 C 2,1 km/h (1 Bft)
02.07.2010 08:20 22,3 C 20,5 C 16,1 C 30,0 C 30,0 C 7,7 C 72 % 87 % 100 % 1015,5 hPa 0,0 l/m 0,6 km/h (0 Bft) SW 225 5 min 0,5 UV-I 17,0 C 30,0 C 0,0 km/h (0 Bft)
02.07.2010 08:25 22,4 C 20,5 C 16,1 C 30,0 C 30,0 C 7,6 C 71 % 87 % 100 % 1015,5 hPa 0,0 l/m 0,3 km/h (0 Bft) W-SW 247 5 min 0,5 UV-I 16,9 C 30,0 C 0,0 km/h (0 Bft)
02.07.2010 08:30 22,4 C 20,5 C 16,1 C 29,9 C 29,9 C 7,5 C 71 % 87 % 100 % 1015,5 hPa 0,0 l/m 0,2 km/h (0 Bft) W-SW 247 5 min 0,5 UV-I 16,9 C 29,9 C 2,3 km/h (1 Bft)
02.07.2010 08:35 22,7 C 20,5 C 16,1 C 29,6 C 29,6 C 6,9 C 71 % 87 % 100 % 1015,5 hPa 0,0 l/m 0,5 km/h (0 Bft) S 180 5 min 0,5 UV-I 17,2 C 29,6 C 3,1 km/h (1 Bft)
02.07.2010 08:40 22,8 C 20,5 C 16,1 C 29,9 C 29,9 C 7,1 C 71 % 87 % 100 % 1015,6 hPa 0,0 l/m 1,6 km/h (1 Bft) S 180 5 min 0,6 UV-I 17,3 C 29,9 C 3,2 km/h (1 Bft)
02.07.2010 08:45 23,2 C 20,5 C 16,1 C 29,9 C 29,9 C 6,7 C 70 % 87 % 100 % 1015,6 hPa 0,0 l/m 1,6 km/h (1 Bft) S 180 5 min 0,6 UV-I 17,4 C 29,9 C 0,0 km/h (0 Bft)
02.07.2010 08:50 23,2 C 20,5 C 20,5 C 30,6 C 30,6 C 7,4 C 70 % 81 % 100 % 1015,6 hPa 0,0 l/m 1,0 km/h (0 Bft) S-SW 202 5 min 0,8 UV-I 17,4 C 30,6 C 0,0 km/h (0 Bft)
02.07.2010 08:55 23,3 C 20,5 C 20,5 C 31,3 C 31,3 C 8,0 C 71 % 81 % 100 % 1015,6 hPa 0,0 l/m 0,5 km/h (0 Bft) N-NW 337 5 min 0,8 UV-I 17,7 C 31,3 C 0,0 km/h (0 Bft)
02.07.2010 09:00 23,7 C 20,5 C 21,0 C 31,8 C 31,8 C 8,1 C 71 % 80 % 100 % 1015,8 hPa 0,0 l/m 0,5 km/h (0 Bft) W-SW 247 5 min 0,9 UV-I 18,1 C 31,8 C 0,0 km/h (0 Bft)
02.07.2010 09:07 24,1 C 20,5 C 21,5 C 32,4 C 32,4 C 8,3 C 69 % 80 % 100 % 1015,8 hPa 0,0 l/m 1,4 km/h (1 Bft) N 0 7 min 1,1 UV-I 18,0 C 32,4 C 3,9 km/h (1 Bft)
02.07.2010 09:10 24,1 C 20,5 C 21,5 C 32,4 C 32,4 C 8,3 C 69 % 80 % 100 % 1015,8 hPa 0,0 l/m 1,4 km/h (1 Bft) S 180 3 min 1,1 UV-I 18,0 C 32,4 C 3,1 km/h (1 Bft)
02.07.2010 09:15 23,9 C 20,5 C 21,8 C 32,2 C 32,2 C 8,3 C 71 % 80 % 100 % 1015,8 hPa 0,0 l/m 1,0 km/h (0 Bft) SW 225 5 min 1,1 UV-I 18,3 C 32,2 C 1,9 km/h (1 Bft)
02.07.2010 09:20 23,9 C 20,5 C 22,0 C 32,6 C 32,6 C 8,7 C 72 % 79 % 100 % 1015,8 hPa 0,0 l/m 1,1 km/h (1 Bft) NW 315 5 min 1,3 UV-I 18,5 C 32,6 C 2,9 km/h (1 Bft)
02.07.2010 09:25 24,0 C 20,5 C 22,3 C 32,4 C 32,4 C 8,4 C 71 % 79 % 100 % 1015,8 hPa 0,0 l/m 1,6 km/h (1 Bft) N-NO 22 5 min 1,3 UV-I 18,4 C 32,4 C 2,9 km/h (1 Bft)
02.07.2010 09:30 24,3 C 20,5 C 22,7 C 31,8 C 31,8 C 7,5 C 70 % 78 % 100 % 1015,8 hPa 0,0 l/m 1,6 km/h (1 Bft) O-NO 67 5 min 1,3 UV-I 18,5 C 31,8 C 4,5 km/h (1 Bft)
02.07.2010 09:35 24,5 C 20,5 C 22,7 C 32,1 C 32,1 C 7,6 C 69 % 77 % 100 % 1015,8 hPa 0,0 l/m 1,0 km/h (0 Bft) N-NO 22 5 min 1,3 UV-I 18,4 C 32,1 C 1,6 km/h (1 Bft)
02.07.2010 09:40 24,6 C 20,5 C 22,8 C 32,4 C 32,4 C 7,8 C 68 % 75 % 100 % 1016,0 hPa 0,0 l/m 1,3 km/h (1 Bft) O-NO 67 5 min 1,7 UV-I 18,3 C 32,4 C 1,8 km/h (1 Bft)
02.07.2010 09:45 24,7 C 20,5 C 22,9 C 32,4 C 32,4 C 7,7 C 66 % 73 % 100 % 1016,0 hPa 0,0 l/m 2,3 km/h (1 Bft) O-NO 67 5 min 1,7 UV-I 17,9 C 32,4 C 4,8 km/h (1 Bft)
02.07.2010 09:50 25,1 C 20,5 C 23,6 C 32,0 C 32,0 C 6,9 C 65 % 72 % 100 % 1016,0 hPa 0,0 l/m 2,6 km/h (1 Bft) W 270 5 min 1,6 UV-I 18,0 C 32,0 C 6,9 km/h (2 Bft)
02.07.2010 09:55 25,1 C 20,5 C 23,4 C 32,2 C 32,2 C 7,1 C 63 % 71 % 100 % 1016,0 hPa 0,0 l/m 2,4 km/h (1 Bft) W-SW 247 5 min 1,6 UV-I 17,5 C 32,2 C 1,6 km/h (1 Bft)
02.07.2010 10:00 25,3 C 20,4 C 23,7 C 32,4 C 32,4 C 7,1 C 61 % 67 % 100 % 1015,9 hPa 0,0 l/m 2,6 km/h (1 Bft) O-NO 67 5 min 1,6 UV-I 17,2 C 32,4 C 6,0 km/h (2 Bft)
02.07.2010 10:07 25,7 C 20,4 C 24,3 C 31,8 C 31,8 C 6,1 C 59 % 64 % 100 % 1015,9 hPa 0,0 l/m 3,2 km/h (1 Bft) N 0 7 min 1,2 UV-I 17,1 C 31,8 C 1,8 km/h (1 Bft)
02.07.2010 10:10 25,7 C 20,4 C 24,3 C 31,8 C 31,8 C 6,1 C 59 % 64 % 100 % 1015,9 hPa 0,0 l/m 3,2 km/h (1 Bft) N-NO 22 3 min 1,2 UV-I 17,1 C 31,8 C 1,8 km/h (1 Bft)
02.07.2010 10:15 25,7 C 20,5 C 24,2 C 32,2 C 32,2 C 6,5 C 59 % 64 % 100 % 1015,9 hPa 0,0 l/m 2,6 km/h (1 Bft) NO 45 5 min 1,2 UV-I 17,1 C 32,2 C 3,9 km/h (1 Bft)
02.07.2010 10:20 25,9 C 20,5 C 24,7 C 32,3 C 32,3 C 6,4 C 54 % 59 % 100 % 1015,9 hPa 0,0 l/m 2,7 km/h (1 Bft) O-NO 67 5 min 1,4 UV-I 15,9 C 32,3 C 3,4 km/h (1 Bft)
02.07.2010 10:25 26,0 C 20,5 C 24,6 C 32,5 C 32,5 C 6,5 C 54 % 60 % 100 % 1015,9 hPa 0,0 l/m 2,7 km/h (1 Bft) NO 45 5 min 1,4 UV-I 16,0 C 32,5 C 3,2 km/h (1 Bft)
02.07.2010 10:30 26,3 C 20,5 C 24,8 C 32,5 C 32,5 C 6,2 C 52 % 56 % 100 % 1015,9 hPa 0,0 l/m 2,6 km/h (1 Bft) N-NW 337 5 min 2,6 UV-I 15,6 C 32,5 C 1,6 km/h (1 Bft)
02.07.2010 10:35 26,3 C 20,5 C 24,8 C 33,0 C 33,0 C 6,7 C 52 % 58 % 100 % 1015,9 hPa 0,0 l/m 2,7 km/h (1 Bft) O-NO 67 5 min 2,6 UV-I 15,6 C 33,0 C 6,3 km/h (2 Bft)
02.07.2010 10:40 26,5 C 20,5 C 24,9 C 32,9 C 32,9 C 6,4 C 53 % 59 % 100 % 1016,0 hPa 0,0 l/m 2,6 km/h (1 Bft) N-NO 22 5 min 2,9 UV-I 16,1 C 32,9 C 2,7 km/h (1 Bft)
02.07.2010 10:45 26,7 C 20,5 C 25,1 C 32,9 C 32,9 C 6,2 C 52 % 58 % 100 % 1016,0 hPa 0,0 l/m 3,1 km/h (1 Bft) SO 135 5 min 2,9 UV-I 16,0 C 32,9 C 3,9 km/h (1 Bft)
02.07.2010 10:50 26,9 C 20,5 C 25,2 C 33,0 C 33,0 C 6,1 C 52 % 57 % 100 % 1016,0 hPa 0,0 l/m 2,6 km/h (1 Bft) O 90 5 min 3,0 UV-I 16,2 C 33,0 C 2,9 km/h (1 Bft)
02.07.2010 10:55 26,8 C 20,5 C 25,4 C 33,1 C 33,1 C 6,3 C 49 % 53 % 100 % 1016,0 hPa 0,0 l/m 1,9 km/h (1 Bft) S-SW 202 5 min 3,0 UV-I 15,2 C 33,1 C 2,4 km/h (1 Bft)
02.07.2010 11:00 27,0 C 20,5 C 25,5 C 34,1 C 34,1 C 7,1 C 50 % 55 % 100 % 1016,0 hPa 0,0 l/m 1,1 km/h (1 Bft) O-NO 67 5 min 3,2 UV-I 15,7 C 34,1 C 6,0 km/h (2 Bft)
02.07.2010 11:07 27,5 C 20,5 C 25,7 C 34,2 C 34,2 C 6,7 C 50 % 55 % 100 % 1016,0 hPa 0,0 l/m 1,4 km/h (1 Bft) N 0 7 min 3,5 UV-I 16,1 C 34,2 C 0,0 km/h (0 Bft)
02.07.2010 11:10 27,5 C 20,5 C 25,7 C 34,2 C 34,2 C 6,7 C 50 % 55 % 100 % 1016,0 hPa 0,0 l/m 1,4 km/h (1 Bft) NO 45 3 min 3,5 UV-I 16,1 C 34,2 C 0,0 km/h (0 Bft)
02.07.2010 11:15 27,5 C 20,6 C 25,9 C 34,5 C 34,5 C 7,0 C 49 % 54 % 100 % 1016,0 hPa 0,0 l/m 1,3 km/h (1 Bft) O-NO 67 5 min 3,5 UV-I 15,8 C 34,5 C 4,3 km/h (1 Bft)
02.07.2010 11:20 27,7 C 20,6 C 26,1 C 34,0 C 34,0 C 6,3 C 45 % 51 % 100 % 1015,8 hPa 0,0 l/m 1,6 km/h (1 Bft) NO 45 5 min 3,7 UV-I 14,7 C 34,0 C 4,0 km/h (1 Bft)
02.07.2010 11:25 27,7 C 20,6 C 26,1 C 33,7 C 33,7 C 6,0 C 40 % 46 % 100 % 1015,8 hPa 0,0 l/m 3,2 km/h (1 Bft) NO 45 5 min 3,7 UV-I 12,9 C 33,7 C 3,9 km/h (1 Bft)
02.07.2010 11:30 27,9 C 20,5 C 26,2 C 33,5 C 33,5 C 5,6 C 42 % 49 % 100 % 1015,8 hPa 0,0 l/m 3,1 km/h (1 Bft) W-SW 247 5 min 3,8 UV-I 13,8 C 33,5 C 7,4 km/h (2 Bft)
02.07.2010 11:35 28,0 C 20,5 C 26,3 C 33,9 C 33,9 C 5,9 C 45 % 50 % 100 % 1015,8 hPa 0,0 l/m 2,4 km/h (1 Bft) S-SO 157 5 min 3,8 UV-I 14,9 C 33,9 C 2,3 km/h (1 Bft)
02.07.2010 11:40 28,3 C 20,5 C 26,6 C 33,9 C 33,9 C 5,6 C 44 % 48 % 100 % 1015,9 hPa 0,0 l/m 2,6 km/h (1 Bft) N 360 5 min 4,0 UV-I 14,9 C 33,9 C 3,4 km/h (1 Bft)
02.07.2010 11:45 28,4 C 20,5 C 26,7 C 34,0 C 34,0 C 5,6 C 44 % 49 % 100 % 1015,9 hPa 0,0 l/m 2,1 km/h (1 Bft) O-NO 67 5 min 4,0 UV-I 14,9 C 34,0 C 2,3 km/h (1 Bft)
02.07.2010 11:50 28,7 C 20,6 C 27,1 C 33,9 C 33,9 C 5,2 C 45 % 48 % 100 % 1015,9 hPa 0,0 l/m 2,7 km/h (1 Bft) W-SW 247 5 min 4,2 UV-I 15,6 C 33,9 C 7,9 km/h (2 Bft)
02.07.2010 11:55 28,6 C 20,6 C 26,9 C 33,9 C 33,9 C 5,3 C 43 % 48 % 100 % 1015,9 hPa 0,0 l/m 2,6 km/h (1 Bft) O-SO 112 5 min 4,2 UV-I 14,8 C 33,9 C 3,2 km/h (1 Bft)
02.07.2010 12:00 28,5 C 20,6 C 27,1 C 33,3 C 33,3 C 4,8 C 43 % 46 % 100 % 1015,9 hPa 0,0 l/m 2,1 km/h (1 Bft) NW 315 5 min 3,6 UV-I 14,7 C 33,3 C 0,0 km/h (0 Bft)
02.07.2010 12:07 28,7 C 20,6 C 27,0 C 33,7 C 33,7 C 5,0 C 45 % 49 % 100 % 1015,9 hPa 0,0 l/m 2,4 km/h (1 Bft) N 0 7 min 4,1 UV-I 15,6 C 33,7 C 4,3 km/h (1 Bft)
02.07.2010 12:10 28,7 C 20,6 C 27,0 C 33,7 C 33,7 C 5,0 C 45 % 49 % 100 % 1015,9 hPa 0,0 l/m 2,4 km/h (1 Bft) O-NO 67 3 min 4,1 UV-I 15,6 C 33,7 C 4,3 km/h (1 Bft)
02.07.2010 12:15 28,9 C 20,6 C 27,3 C 33,9 C 33,9 C 5,0 C 44 % 48 % 100 % 1015,9 hPa 0,0 l/m 2,7 km/h (1 Bft) NW 315 5 min 4,1 UV-I 15,4 C 33,9 C 2,1 km/h (1 Bft)
02.07.2010 12:20 28,8 C 20,6 C 27,4 C 34,1 C 34,1 C 5,3 C 45 % 48 % 100 % 1016,0 hPa 0,0 l/m 1,9 km/h (1 Bft) N-NO 22 5 min 4,0 UV-I 15,7 C 34,1 C 1,6 km/h (1 Bft)
02.07.2010 12:25 29,0 C 20,6 C 27,5 C 34,0 C 34,0 C 5,0 C 43 % 47 % 100 % 1016,0 hPa 0,0 l/m 2,4 km/h (1 Bft) O-SO 112 5 min 4,0 UV-I 15,1 C 34,0 C 7,2 km/h (2 Bft)
02.07.2010 12:30 29,0 C 20,6 C 27,7 C 33,0 C 33,0 C 4,0 C 44 % 47 % 100 % 1016,0 hPa 0,0 l/m 4,0 km/h (1 Bft) N 360 5 min 3,2 UV-I 15,5 C 33,0 C 4,7 km/h (1 Bft)
02.07.2010 12:35 28,9 C 20,6 C 27,7 C 32,7 C 32,7 C 3,8 C 44 % 49 % 100 % 1016,0 hPa 0,0 l/m 4,0 km/h (1 Bft) NW 315 5 min 3,2 UV-I 15,4 C 32,7 C 1,6 km/h (1 Bft)
02.07.2010 12:40 29,1 C 20,6 C 27,9 C 33,2 C 33,2 C 4,1 C 45 % 49 % 100 % 1015,9 hPa 0,0 l/m 2,7 km/h (1 Bft) O-NO 67 5 min 4,4 UV-I 15,9 C 33,2 C 3,1 km/h (1 Bft)
02.07.2010 12:45 29,3 C 20,6 C 28,3 C 34,0 C 34,0 C 4,7 C 45 % 49 % 100 % 1015,9 hPa 0,0 l/m 2,4 km/h (1 Bft) N-NO 22 5 min 4,4 UV-I 16,1 C 34,0 C 4,2 km/h (1 Bft)
02.07.2010 12:50 29,1 C 20,6 C 28,3 C 33,4 C 33,4 C 4,3 C 43 % 45 % 100 % 1015,9 hPa 0,0 l/m 3,5 km/h (1 Bft) O-NO 67 5 min 3,2 UV-I 15,2 C 33,4 C 8,9 km/h (2 Bft)
02.07.2010 12:55 29,0 C 20,6 C 28,1 C 32,7 C 32,7 C 3,7 C 43 % 46 % 97 % 1015,9 hPa 0,0 l/m 3,9 km/h (1 Bft) O 90 5 min 3,2 UV-I 15,1 C 32,7 C 3,2 km/h (1 Bft)
02.07.2010 13:00 29,1 C 20,7 C 28,1 C 32,6 C 32,6 C 3,5 C 44 % 47 % 92 % 1015,8 hPa 0,0 l/m 2,4 km/h (1 Bft) NW 315 5 min 3,9 UV-I 15,6 C 32,6 C 2,9 km/h (1 Bft)
02.07.2010 13:07 29,5 C 20,7 C 28,4 C 34,0 C 34,0 C 4,5 C 43 % 47 % 100 % 1015,8 hPa 0,0 l/m 2,4 km/h (1 Bft) N 0 7 min 3,7 UV-I 15,6 C 34,0 C 4,5 km/h (1 Bft)
02.07.2010 13:10 29,5 C 20,7 C 28,4 C 34,0 C 34,0 C 4,5 C 43 % 47 % 100 % 1015,8 hPa 0,0 l/m 2,4 km/h (1 Bft) O-SO 112 3 min 3,7 UV-I 15,6 C 34,0 C 4,5 km/h (1 Bft)
02.07.2010 13:15 29,3 C 20,7 C 28,4 C 33,6 C 33,6 C 4,3 C 44 % 46 % 100 % 1015,8 hPa 0,0 l/m 1,9 km/h (1 Bft) W 270 5 min 3,7 UV-I 15,8 C 33,6 C 1,6 km/h (1 Bft)
02.07.2010 13:20 29,4 C 20,8 C 28,5 C 33,8 C 33,8 C 4,4 C 43 % 46 % 100 % 1016,2 hPa 0,0 l/m 1,8 km/h (1 Bft) W 270 5 min 4,8 UV-I 15,5 C 33,8 C 2,9 km/h (1 Bft)
02.07.2010 13:25 29,7 C 20,8 C 28,5 C 34,5 C 34,5 C 4,8 C 42 % 45 % 100 % 1016,2 hPa 0,0 l/m 1,8 km/h (1 Bft) O-NO 67 5 min 4,8 UV-I 15,4 C 34,5 C 2,9 km/h (1 Bft)
02.07.2010 13:30 29,7 C 20,8 C 28,7 C 34,8 C 34,8 C 5,1 C 42 % 44 % 100 % 1016,2 hPa 0,0 l/m 1,9 km/h (1 Bft) SO 135 5 min 4,8 UV-I 15,4 C 34,8 C 2,1 km/h (1 Bft)
02.07.2010 13:35 29,8 C 20,8 C 28,9 C 35,3 C 35,3 C 5,5 C 42 % 45 % 100 % 1016,2 hPa 0,0 l/m 1,9 km/h (1 Bft) S 180 5 min 4,8 UV-I 15,5 C 35,3 C 0,0 km/h (0 Bft)
02.07.2010 13:40 30,0 C 20,9 C 29,2 C 35,6 C 35,6 C 5,6 C 42 % 44 % 100 % 1016,0 hPa 0,0 l/m 2,6 km/h (1 Bft) NW 315 5 min 5,2 UV-I 15,7 C 35,6 C 4,7 km/h (1 Bft)
02.07.2010 13:45 30,1 C 20,9 C 29,4 C 35,6 C 35,6 C 5,5 C 42 % 44 % 100 % 1016,0 hPa 0,0 l/m 2,9 km/h (1 Bft) S-SO 157 5 min 5,2 UV-I 15,7 C 35,6 C 5,1 km/h (1 Bft)
02.07.2010 13:50 30,3 C 20,9 C 29,6 C 35,5 C 35,5 C 5,2 C 40 % 42 % 100 % 1016,0 hPa 0,0 l/m 3,4 km/h (1 Bft) O 90 5 min 4,8 UV-I 15,2 C 35,5 C 9,5 km/h (2 Bft)
02.07.2010 13:55 30,1 C 20,9 C 29,5 C 34,7 C 34,7 C 4,6 C 40 % 42 % 100 % 1016,0 hPa 0,0 l/m 3,9 km/h (1 Bft) O 90 5 min 4,8 UV-I 15,0 C 34,7 C 5,8 km/h (2 Bft)
02.07.2010 14:00 30,1 C 21,0 C 29,4 C 34,6 C 34,6 C 4,5 C 42 % 44 % 100 % 1015,9 hPa 0,0 l/m 2,7 km/h (1 Bft) O-NO 67 5 min 4,4 UV-I 15,7 C 34,6 C 2,6 km/h (1 Bft)
02.07.2010 14:07 30,1 C 21,0 C 29,4 C 34,4 C 34,4 C 4,3 C 41 % 42 % 100 % 1015,9 hPa 0,0 l/m 2,3 km/h (1 Bft) N 0 7 min 4,2 UV-I 15,4 C 34,4 C 2,1 km/h (1 Bft)
02.07.2010 14:10 30,1 C 21,0 C 29,4 C 34,4 C 34,4 C 4,3 C 41 % 42 % 100 % 1015,9 hPa 0,0 l/m 2,3 km/h (1 Bft) O-NO 67 3 min 4,2 UV-I 15,4 C 34,4 C 2,1 km/h (1 Bft)
02.07.2010 14:15 30,3 C 21,0 C 29,5 C 34,2 C 34,2 C 3,9 C 41 % 43 % 100 % 1015,9 hPa 0,0 l/m 1,6 km/h (1 Bft) SO 135 5 min 4,2 UV-I 15,6 C 34,2 C 2,3 km/h (1 Bft)
02.07.2010 14:20 30,4 C 21,1 C 30,2 C 35,1 C 35,1 C 4,7 C 40 % 42 % 100 % 1015,8 hPa 0,0 l/m 2,3 km/h (1 Bft) O-SO 112 5 min 5,1 UV-I 15,3 C 35,1 C 6,4 km/h (2 Bft)
02.07.2010 14:25 30,4 C 21,0 C 30,1 C 34,8 C 34,8 C 4,4 C 39 % 42 % 100 % 1015,8 hPa 0,0 l/m 4,0 km/h (1 Bft) O-NO 67 5 min 5,1 UV-I 14,9 C 34,8 C 5,6 km/h (1 Bft)
02.07.2010 14:30 30,4 C 21,0 C 29,9 C 34,0 C 34,0 C 3,6 C 41 % 42 % 95 % 1015,8 hPa 0,0 l/m 5,5 km/h (1 Bft) O-NO 67 5 min 4,7 UV-I 15,6 C 34,0 C 10,9 km/h (2 Bft)
02.07.2010 14:35 30,5 C 21,1 C 30,1 C 34,0 C 34,0 C 3,5 C 39 % 42 % 92 % 1015,8 hPa 0,0 l/m 5,0 km/h (1 Bft) O-NO 67 5 min 4,7 UV-I 15,0 C 34,0 C 7,4 km/h (2 Bft)
02.07.2010 14:40 30,4 C 21,1 C 30,1 C 33,3 C 33,3 C 2,9 C 38 % 39 % 76 % 1015,6 hPa 0,0 l/m 6,1 km/h (2 Bft) O-NO 67 0 min 4,4 UV-I 14,5 C 33,3 C 6,9 km/h (2 Bft)
02.07.2010 14:45 30,5 C 21,1 C 30,5 C 33,1 C 33,1 C 2,6 C 39 % 39 % 68 % 1015,6 hPa 0,0 l/m 6,0 km/h (2 Bft) NO 45 0 min 4,4 UV-I 15,0 C 33,1 C 0,0 km/h (0 Bft)
02.07.2010 14:50 30,8 C 21,2 C 31,7 C 34,1 C 34,1 C 3,3 C 39 % 39 % 87 % 1015,6 hPa 0,0 l/m 3,1 km/h (1 Bft) O-NO 67 5 min 4,5 UV-I 15,2 C 34,1 C 8,5 km/h (2 Bft)
02.07.2010 14:55 30,8 C 21,2 C 31,9 C 34,5 C 34,5 C 3,7 C 38 % 37 % 97 % 1015,6 hPa 0,0 l/m 1,9 km/h (1 Bft) O 90 5 min 4,5 UV-I 14,8 C 34,5 C 4,2 km/h (1 Bft)
02.07.2010 15:00 31,0 C 21,2 C 32,2 C 35,0 C 35,0 C 4,0 C 38 % 37 % 100 % 1015,5 hPa 0,0 l/m 2,7 km/h (1 Bft) N-NO 22 5 min 4,6 UV-I 15,0 C 35,0 C 2,6 km/h (1 Bft)
02.07.2010 15:07 30,7 C 21,2 C 31,4 C 34,1 C 34,1 C 3,4 C 38 % 37 % 89 % 1015,5 hPa 0,0 l/m 4,7 km/h (1 Bft) N 0 7 min 4,2 UV-I 14,7 C 34,1 C 3,7 km/h (1 Bft)
02.07.2010 15:10 30,7 C 21,2 C 31,4 C 34,1 C 34,1 C 3,4 C 38 % 37 % 89 % 1015,5 hPa 0,0 l/m 4,7 km/h (1 Bft) O 90 3 min 4,2 UV-I 14,7 C 34,1 C 3,7 km/h (1 Bft)
02.07.2010 15:15 30,7 C 21,3 C 31,6 C 33,7 C 33,7 C 3,0 C 37 % 37 % 79 % 1015,5 hPa 0,0 l/m 5,3 km/h (1 Bft) NO 45 0 min 4,2 UV-I 14,3 C 33,7 C 5,6 km/h (1 Bft)
02.07.2010 15:20 30,7 C 21,4 C 31,7 C 33,5 C 33,5 C 2,8 C 37 % 36 % 74 % 1015,6 hPa 0,0 l/m 4,0 km/h (1 Bft) O-NO 67 0 min 3,5 UV-I 14,3 C 33,5 C 4,3 km/h (1 Bft)
02.07.2010 15:25 30,9 C 21,4 C 31,9 C 33,8 C 33,8 C 2,9 C 37 % 37 % 76 % 1015,6 hPa 0,0 l/m 3,4 km/h (1 Bft) O-NO 67 0 min 3,5 UV-I 14,5 C 33,8 C 2,4 km/h (1 Bft)
02.07.2010 15:30 31,1 C 21,4 C 32,9 C 34,6 C 34,6 C 3,5 C 37 % 35 % 92 % 1015,6 hPa 0,0 l/m 2,3 km/h (1 Bft) SO 135 5 min 3,7 UV-I 14,7 C 34,6 C 0,0 km/h (0 Bft)
02.07.2010 15:35 31,5 C 21,5 C 33,1 C 35,3 C 35,3 C 3,8 C 37 % 35 % 100 % 1015,6 hPa 0,0 l/m 1,9 km/h (1 Bft) N-NO 22 5 min 3,7 UV-I 15,0 C 35,3 C 2,3 km/h (1 Bft)
02.07.2010 15:40 31,6 C 21,5 C 33,2 C 36,0 C 36,0 C 4,4 C 37 % 35 % 100 % 1015,6 hPa 0,0 l/m 2,3 km/h (1 Bft) O-NO 67 5 min 3,6 UV-I 15,1 C 36,0 C 2,6 km/h (1 Bft)
02.07.2010 15:45 31,6 C 21,6 C 32,8 C 36,4 C 36,4 C 4,8 C 36 % 34 % 100 % 1015,6 hPa 0,0 l/m 2,3 km/h (1 Bft) NW 315 5 min 3,6 UV-I 14,7 C 36,4 C 4,7 km/h (1 Bft)
02.07.2010 15:50 31,5 C 21,6 C 32,7 C 36,2 C 36,2 C 4,7 C 35 % 33 % 100 % 1015,6 hPa 0,0 l/m 2,7 km/h (1 Bft) O 90 5 min 2,6 UV-I 14,2 C 36,2 C 3,2 km/h (1 Bft)
02.07.2010 15:55 31,3 C 21,6 C 32,1 C 35,1 C 35,1 C 3,8 C 35 % 34 % 100 % 1015,6 hPa 0,0 l/m 3,5 km/h (1 Bft) O 90 5 min 2,6 UV-I 14,0 C 35,1 C 3,7 km/h (1 Bft)
02.07.2010 16:00 31,0 C 21,7 C 31,8 C 34,1 C 34,1 C 3,1 C 35 % 34 % 82 % 1015,5 hPa 0,0 l/m 4,0 km/h (1 Bft) NO 45 0 min 2,5 UV-I 13,7 C 34,1 C 6,6 km/h (2 Bft)
02.07.2010 16:10 31,1 C 21,8 C 31,9 C 33,6 C 33,6 C 2,5 C 37 % 36 % 66 % 1015,5 hPa 0,0 l/m 4,0 km/h (1 Bft) O-NO 67 0 min 2,6 UV-I 14,7 C 33,6 C 5,1 km/h (1 Bft)
02.07.2010 16:15 31,1 C 21,8 C 31,6 C 33,8 C 33,8 C 2,7 C 36 % 35 % 71 % 1015,5 hPa 0,0 l/m 3,5 km/h (1 Bft) O 90 0 min 2,6 UV-I 14,2 C 33,8 C 3,9 km/h (1 Bft)
02.07.2010 16:20 31,3 C 21,9 C 31,6 C 33,8 C 33,8 C 2,5 C 36 % 36 % 66 % 1015,4 hPa 0,0 l/m 3,2 km/h (1 Bft) W-SW 247 0 min 2,5 UV-I 14,4 C 33,8 C 1,6 km/h (1 Bft)
02.07.2010 16:25 31,5 C 21,9 C 31,9 C 34,4 C 34,4 C 2,9 C 36 % 35 % 76 % 1015,4 hPa 0,0 l/m 2,9 km/h (1 Bft) O-NO 67 0 min 2,5 UV-I 14,6 C 34,4 C 3,4 km/h (1 Bft)
02.07.2010 16:30 31,4 C 22,0 C 31,9 C 34,7 C 34,7 C 3,3 C 35 % 35 % 87 % 1015,4 hPa 0,0 l/m 2,9 km/h (1 Bft) O-SO 112 5 min 2,4 UV-I 14,1 C 34,7 C 4,5 km/h (1 Bft)
02.07.2010 16:35 31,5 C 22,0 C 31,8 C 34,8 C 34,8 C 3,3 C 36 % 35 % 87 % 1015,4 hPa 0,0 l/m 2,4 km/h (1 Bft) N 360 5 min 2,4 UV-I 14,6 C 34,8 C 4,0 km/h (1 Bft)
02.07.2010 16:40 31,5 C 22,0 C 31,7 C 34,8 C 34,8 C 3,3 C 36 % 35 % 87 % 1015,3 hPa 0,0 l/m 1,6 km/h (1 Bft) N-NW 337 5 min 1,8 UV-I 14,6 C 34,8 C 1,8 km/h (1 Bft)
02.07.2010 16:45 31,5 C 22,1 C 31,6 C 34,5 C 34,5 C 3,0 C 36 % 35 % 79 % 1015,3 hPa 0,0 l/m 2,4 km/h (1 Bft) O-NO 67 0 min 1,8 UV-I 14,6 C 34,5 C 6,8 km/h (2 Bft)
02.07.2010 16:50 31,6 C 22,1 C 31,6 C 34,7 C 34,7 C 3,1 C 36 % 36 % 82 % 1015,3 hPa 0,0 l/m 2,9 km/h (1 Bft) O-NO 67 0 min 2,0 UV-I 14,7 C 34,7 C 2,9 km/h (1 Bft)
02.07.2010 16:55 31,7 C 22,2 C 31,6 C 35,0 C 35,0 C 3,3 C 36 % 36 % 87 % 1015,3 hPa 0,0 l/m 2,6 km/h (1 Bft) NO 45 5 min 2,0 UV-I 14,8 C 35,0 C 1,8 km/h (1 Bft)
02.07.2010 17:00 32,0 C 22,2 C 32,0 C 35,8 C 35,8 C 3,8 C 35 % 35 % 100 % 1015,1 hPa 0,0 l/m 1,3 km/h (1 Bft) NO 45 5 min 1,8 UV-I 14,6 C 35,8 C 0,0 km/h (0 Bft)
02.07.2010 17:10 32,0 C 22,3 C 32,1 C 36,2 C 36,2 C 4,2 C 35 % 35 % 100 % 1015,1 hPa 0,0 l/m 1,9 km/h (1 Bft) NO 45 10 min 1,7 UV-I 14,6 C 36,2 C 2,1 km/h (1 Bft)
02.07.2010 17:15 32,0 C 22,3 C 31,9 C 36,1 C 36,1 C 4,1 C 34 % 35 % 100 % 1015,1 hPa 0,0 l/m 2,6 km/h (1 Bft) O-NO 67 5 min 1,7 UV-I 14,1 C 36,1 C 3,4 km/h (1 Bft)
02.07.2010 17:20 31,8 C 22,4 C 31,6 C 35,3 C 35,3 C 3,5 C 36 % 36 % 92 % 1015,0 hPa 0,0 l/m 3,7 km/h (1 Bft) O-NO 67 5 min 1,5 UV-I 14,9 C 35,3 C 3,2 km/h (1 Bft)
02.07.2010 17:25 31,9 C 22,4 C 31,6 C 35,2 C 35,2 C 3,3 C 36 % 36 % 87 % 1015,0 hPa 0,0 l/m 3,4 km/h (1 Bft) NO 45 5 min 1,5 UV-I 14,9 C 35,2 C 5,0 km/h (1 Bft)
02.07.2010 17:30 31,8 C 22,5 C 31,5 C 35,0 C 35,0 C 3,2 C 35 % 36 % 84 % 1015,0 hPa 0,0 l/m 2,6 km/h (1 Bft) NO 45 0 min 1,2 UV-I 14,4 C 35,0 C 2,1 km/h (1 Bft)
02.07.2010 17:35 31,9 C 22,5 C 31,5 C 34,9 C 34,9 C 3,0 C 35 % 36 % 79 % 1015,0 hPa 0,0 l/m 2,4 km/h (1 Bft) O-NO 67 0 min 1,2 UV-I 14,5 C 34,9 C 3,9 km/h (1 Bft)
02.07.2010 17:40 31,7 C 22,5 C 31,3 C 34,6 C 34,6 C 2,9 C 35 % 36 % 76 % 1015,1 hPa 0,0 l/m 3,4 km/h (1 Bft) O-NO 67 0 min 1,1 UV-I 14,3 C 34,6 C 4,8 km/h (1 Bft)
02.07.2010 17:45 31,6 C 22,5 C 31,2 C 34,1 C 34,1 C 2,5 C 36 % 37 % 66 % 1015,1 hPa 0,0 l/m 4,7 km/h (1 Bft) O-NO 67 0 min 1,1 UV-I 14,7 C 34,1 C 6,9 km/h (2 Bft)
02.07.2010 17:50 31,6 C 22,5 C 31,1 C 33,9 C 33,9 C 2,3 C 35 % 37 % 61 % 1015,1 hPa 0,0 l/m 4,0 km/h (1 Bft) O-NO 67 0 min 1,0 UV-I 14,2 C 33,9 C 3,9 km/h (1 Bft)
02.07.2010 17:55 31,7 C 22,6 C 31,0 C 33,9 C 33,9 C 2,2 C 36 % 38 % 58 % 1015,1 hPa 0,0 l/m 3,2 km/h (1 Bft) O-NO 67 0 min 1,0 UV-I 14,8 C 33,9 C 3,5 km/h (1 Bft)
02.07.2010 18:00 31,6 C 22,6 C 31,1 C 33,9 C 33,9 C 2,3 C 37 % 38 % 61 % 1015,3 hPa 0,0 l/m 3,4 km/h (1 Bft) O-NO 67 0 min 0,8 UV-I 15,1 C 33,9 C 3,4 km/h (1 Bft)
02.07.2010 18:06 31,5 C 22,6 C 30,9 C 33,3 C 33,3 C 1,8 C 36 % 38 % 47 % 1015,3 hPa 0,0 l/m 4,3 km/h (1 Bft) N 0 0 min 0,7 UV-I 14,6 C 33,3 C 4,7 km/h (1 Bft)
02.07.2010 18:10 31,5 C 22,6 C 30,9 C 33,3 C 33,3 C 1,8 C 36 % 38 % 47 % 1015,3 hPa 0,0 l/m 4,3 km/h (1 Bft) W-SW 247 0 min 0,7 UV-I 14,6 C 33,3 C 4,7 km/h (1 Bft)
02.07.2010 18:15 31,4 C 22,6 C 30,8 C 33,2 C 33,2 C 1,8 C 36 % 37 % 47 % 1015,3 hPa 0,0 l/m 4,0 km/h (1 Bft) O-NO 67 0 min 0,7 UV-I 14,5 C 33,2 C 3,5 km/h (1 Bft)
02.07.2010 18:20 31,4 C 22,6 C 30,7 C 33,2 C 33,2 C 1,8 C 36 % 38 % 47 % 1015,4 hPa 0,0 l/m 3,7 km/h (1 Bft) O-SO 112 0 min 0,6 UV-I 14,5 C 33,2 C 5,8 km/h (2 Bft)
02.07.2010 18:25 31,4 C 22,7 C 30,6 C 33,2 C 33,2 C 1,8 C 37 % 40 % 47 % 1015,4 hPa 0,0 l/m 3,9 km/h (1 Bft) O-NO 67 0 min 0,6 UV-I 14,9 C 33,2 C 5,3 km/h (1 Bft)
02.07.2010 18:30 31,5 C 22,7 C 30,5 C 33,1 C 33,1 C 1,6 C 38 % 39 % 42 % 1015,4 hPa 0,0 l/m 4,2 km/h (1 Bft) O-NO 67 0 min 0,5 UV-I 15,4 C 33,1 C 4,7 km/h (1 Bft)
02.07.2010 18:35 31,2 C 22,7 C 30,5 C 32,9 C 32,9 C 1,7 C 38 % 40 % 45 % 1015,4 hPa 0,0 l/m 4,2 km/h (1 Bft) O-NO 67 0 min 0,5 UV-I 15,2 C 32,9 C 4,2 km/h (1 Bft)
02.07.2010 18:40 31,3 C 22,7 C 30,3 C 32,7 C 32,7 C 1,4 C 37 % 39 % 37 % 1015,3 hPa 0,0 l/m 4,7 km/h (1 Bft) O-NO 67 0 min 0,4 UV-I 14,8 C 32,7 C 3,7 km/h (1 Bft)
02.07.2010 18:45 31,3 C 22,7 C 30,3 C 32,6 C 32,6 C 1,3 C 37 % 38 % 34 % 1015,3 hPa 0,0 l/m 4,7 km/h (1 Bft) O 90 0 min 0,4 UV-I 14,8 C 32,6 C 5,5 km/h (1 Bft)
02.07.2010 18:50 31,3 C 22,7 C 30,3 C 32,5 C 32,5 C 1,2 C 36 % 38 % 32 % 1015,3 hPa 0,0 l/m 3,9 km/h (1 Bft) O-NO 67 0 min 0,3 UV-I 14,4 C 32,5 C 3,9 km/h (1 Bft)
02.07.2010 18:55 31,1 C 22,7 C 30,3 C 32,5 C 32,5 C 1,4 C 37 % 39 % 37 % 1015,3 hPa 0,0 l/m 4,2 km/h (1 Bft) O-NO 67 0 min 0,3 UV-I 14,7 C 32,5 C 6,1 km/h (2 Bft)
02.07.2010 19:00 31,1 C 22,7 C 30,0 C 32,3 C 32,3 C 1,2 C 37 % 39 % 32 % 1015,1 hPa 0,0 l/m 4,8 km/h (1 Bft) O-NO 67 0 min 0,2 UV-I 14,7 C 32,3 C 6,6 km/h (2 Bft)
02.07.2010 19:06 30,9 C 22,7 C 29,7 C 31,9 C 31,9 C 1,0 C 38 % 41 % 26 % 1015,1 hPa 0,0 l/m 4,8 km/h (1 Bft) N 0 0 min 0,1 UV-I 14,9 C 31,9 C 6,4 km/h (2 Bft)
02.07.2010 19:10 30,9 C 22,7 C 29,7 C 31,9 C 31,9 C 1,0 C 38 % 41 % 26 % 1015,1 hPa 0,0 l/m 4,8 km/h (1 Bft) NO 45 0 min 0,1 UV-I 14,9 C 31,9 C 6,4 km/h (2 Bft)
02.07.2010 19:15 30,8 C 22,7 C 29,7 C 31,8 C 31,8 C 1,0 C 39 % 42 % 26 % 1015,1 hPa 0,0 l/m 4,7 km/h (1 Bft) NO 45 0 min 0,1 UV-I 15,2 C 31,8 C 6,3 km/h (2 Bft)
02.07.2010 19:20 30,7 C 22,8 C 29,5 C 31,5 C 31,5 C 0,8 C 39 % 42 % 21 % 1015,3 hPa 0,0 l/m 5,1 km/h (1 Bft) O-NO 67 0 min 0,1 UV-I 15,1 C 31,5 C 4,3 km/h (1 Bft)
02.07.2010 19:25 30,7 C 22,8 C 29,4 C 31,4 C 31,4 C 0,7 C 40 % 42 % 18 % 1015,3 hPa 0,0 l/m 5,5 km/h (1 Bft) NO 45 0 min 0,1 UV-I 15,5 C 31,4 C 6,1 km/h (2 Bft)
02.07.2010 19:30 30,6 C 22,8 C 29,3 C 31,1 C 31,1 C 0,5 C 39 % 42 % 13 % 1015,3 hPa 0,0 l/m 5,3 km/h (1 Bft) O-NO 67 0 min 0,0 UV-I 15,0 C 31,1 C 5,8 km/h (2 Bft)
02.07.2010 19:35 30,5 C 22,8 C 29,2 C 31,0 C 31,0 C 0,5 C 39 % 43 % 13 % 1015,3 hPa 0,0 l/m 5,3 km/h (1 Bft) O-NO 67 0 min 0,0 UV-I 15,0 C 31,0 C 4,2 km/h (1 Bft)
02.07.2010 19:40 30,5 C 22,8 C 29,1 C 30,9 C 30,9 C 0,4 C 40 % 44 % 11 % 1015,4 hPa 0,0 l/m 4,5 km/h (1 Bft) O-NO 67 0 min 0,0 UV-I 15,3 C 30,9 C 4,0 km/h (1 Bft)
02.07.2010 19:45 30,4 C 22,8 C 29,1 C 30,9 C 30,9 C 0,5 C 40 % 44 % 13 % 1015,4 hPa 0,0 l/m 3,9 km/h (1 Bft) O 90 0 min 0,0 UV-I 15,3 C 30,9 C 4,7 km/h (1 Bft)
02.07.2010 19:50 30,3 C 22,8 C 28,8 C 30,7 C 30,7 C 0,4 C 41 % 45 % 11 % 1015,4 hPa 0,0 l/m 3,5 km/h (1 Bft) O-NO 67 0 min 0,0 UV-I 15,6 C 30,7 C 4,5 km/h (1 Bft)
02.07.2010 19:55 30,0 C 22,8 C 28,7 C 30,4 C 30,4 C 0,4 C 41 % 45 % 11 % 1015,4 hPa 0,0 l/m 3,7 km/h (1 Bft) O-NO 67 0 min 0,0 UV-I 15,3 C 30,4 C 3,1 km/h (1 Bft)
02.07.2010 20:00 29,7 C 22,9 C 28,4 C 29,8 C 29,8 C 0,1 C 41 % 45 % 3 % 1015,2 hPa 0,0 l/m 3,4 km/h (1 Bft) O-NO 67 0 min 0,0 UV-I 15,0 C 29,8 C 4,7 km/h (1 Bft)
02.07.2010 20:06 29,2 C 22,9 C 27,9 C 29,0 C 28,6 C 0,0 C 42 % 46 % 0 % 1015,2 hPa 0,0 l/m 2,4 km/h (1 Bft) N 0 0 min 0,0 UV-I 14,9 C 28,6 C 2,1 km/h (1 Bft)
02.07.2010 20:10 29,2 C 22,9 C 27,9 C 29,0 C 28,6 C 0,0 C 42 % 46 % 0 % 1015,2 hPa 0,0 l/m 2,4 km/h (1 Bft) O-NO 67 0 min 0,0 UV-I 14,9 C 28,6 C 2,1 km/h (1 Bft)
02.07.2010 20:15 29,0 C 22,9 C 27,8 C 28,7 C 28,1 C 0,0 C 43 % 46 % 0 % 1015,2 hPa 0,0 l/m 1,9 km/h (1 Bft) O-NO 67 0 min 0,0 UV-I 15,1 C 28,1 C 0,0 km/h (0 Bft)
02.07.2010 20:20 28,9 C 22,9 C 27,2 C 28,4 C 27,4 C 0,0 C 44 % 48 % 0 % 1015,1 hPa 0,0 l/m 1,0 km/h (0 Bft) O-NO 67 0 min 0,0 UV-I 15,4 C 27,4 C 0,0 km/h (0 Bft)
02.07.2010 20:25 28,6 C 22,9 C 26,9 C 28,1 C 27,0 C 0,0 C 45 % 49 % 0 % 1015,1 hPa 0,0 l/m 0,3 km/h (0 Bft) NO 45 0 min 0,0 UV-I 15,5 C 27,0 C 0,0 km/h (0 Bft)
02.07.2010 20:30 28,5 C 22,9 C 26,7 C 27,8 C 26,4 C 0,0 C 45 % 50 % 0 % 1015,1 hPa 0,0 l/m 0,0 km/h (0 Bft) N-NO 22 0 min 0,0 UV-I 15,4 C 26,4 C 0,0 km/h (0 Bft)
02.07.2010 20:35 28,4 C 22,9 C 26,4 C 27,6 C 26,0 C 0,0 C 46 % 51 % 0 % 1015,1 hPa 0,0 l/m 0,0 km/h (0 Bft) N-NO 22 0 min 0,0 UV-I 15,6 C 26,0 C 0,0 km/h (0 Bft)
02.07.2010 20:40 28,2 C 22,9 C 26,1 C 27,3 C 25,5 C 0,0 C 47 % 52 % 0 % 1015,2 hPa 0,0 l/m 0,0 km/h (0 Bft) N-NO 22 0 min 0,0 UV-I 15,8 C 25,5 C 0,0 km/h (0 Bft)
02.07.2010 20:45 28,1 C 22,9 C 26,0 C 27,1 C 25,2 C 0,0 C 48 % 54 % 0 % 1015,2 hPa 0,0 l/m 0,0 km/h (0 Bft) N-NO 22 0 min 0,0 UV-I 16,0 C 25,2 C 0,0 km/h (0 Bft)
02.07.2010 20:50 27,9 C 22,8 C 25,7 C 26,9 C 24,8 C 0,0 C 49 % 55 % 0 % 1015,2 hPa 0,0 l/m 0,0 km/h (0 Bft) N-NO 22 0 min 0,0 UV-I 16,2 C 24,8 C 0,0 km/h (0 Bft)
02.07.2010 20:55 27,6 C 22,8 C 25,5 C 26,6 C 24,5 C 0,0 C 49 % 56 % 0 % 1015,2 hPa 0,0 l/m 0,0 km/h (0 Bft) N-NO 22 0 min 0,0 UV-I 15,9 C 24,5 C 0,0 km/h (0 Bft)
02.07.2010 21:00 27,2 C 22,9 C 25,1 C 26,2 C 24,1 C 0,0 C 51 % 57 % 0 % 1015,1 hPa 0,0 l/m 0,0 km/h (0 Bft) N-NO 22 0 min 0,0 UV-I 16,2 C 24,1 C 0,0 km/h (0 Bft)
02.07.2010 21:10 26,8 C 22,9 C 24,5 C 25,7 C 23,6 C 0,0 C 52 % 60 % 0 % 1015,1 hPa 0,0 l/m 0,0 km/h (0 Bft) NO 45 0 min 0,0 UV-I 16,1 C 23,6 C 0,0 km/h (0 Bft)
02.07.2010 21:15 26,6 C 22,9 C 24,4 C 25,5 C 23,4 C 0,0 C 54 % 60 % 0 % 1015,1 hPa 0,0 l/m 0,0 km/h (0 Bft) NO 45 0 min 0,0 UV-I 16,5 C 23,4 C 0,0 km/h (0 Bft)
02.07.2010 21:20 26,4 C 22,9 C 24,1 C 25,3 C 23,0 C 0,0 C 54 % 61 % 0 % 1015,4 hPa 0,0 l/m 0,0 km/h (0 Bft) O-NO 67 0 min 0,0 UV-I 16,3 C 23,0 C 0,0 km/h (0 Bft)
02.07.2010 21:25 26,3 C 22,9 C 24,1 C 25,1 C 22,8 C 0,0 C 55 % 62 % 0 % 1015,4 hPa 0,0 l/m 0,0 km/h (0 Bft) O-NO 67 0 min 0,0 UV-I 16,5 C 22,8 C 0,0 km/h (0 Bft)
02.07.2010 21:30 26,2 C 22,9 C 24,1 C 24,9 C 22,4 C 0,0 C 56 % 62 % 0 % 1015,4 hPa 0,0 l/m 0,0 km/h (0 Bft) W 270 0 min 0,0 UV-I 16,7 C 22,4 C 0,0 km/h (0 Bft)
02.07.2010 21:35 26,3 C 22,9 C 24,1 C 24,9 C 22,1 C 0,0 C 56 % 62 % 0 % 1015,4 hPa 0,0 l/m 0,0 km/h (0 Bft) W 270 0 min 0,0 UV-I 16,8 C 22,1 C 0,0 km/h (0 Bft)
02.07.2010 21:40 26,1 C 22,9 C 24,1 C 24,6 C 21,7 C 0,0 C 57 % 62 % 0 % 1015,5 hPa 0,0 l/m 0,0 km/h (0 Bft) N-NO 22 0 min 0,0 UV-I 16,9 C 21,7 C 0,0 km/h (0 Bft)
02.07.2010 21:45 25,8 C 22,9 C 24,1 C 24,4 C 21,6 C 0,0 C 57 % 62 % 0 % 1015,5 hPa 0,0 l/m 0,0 km/h (0 Bft) N-NO 22 0 min 0,0 UV-I 16,6 C 21,6 C 0,0 km/h (0 Bft)
02.07.2010 21:50 25,6 C 22,8 C 24,1 C 24,2 C 21,4 C 0,0 C 58 % 62 % 0 % 1015,5 hPa 0,0 l/m 0,0 km/h (0 Bft) S 180 0 min 0,0 UV-I 16,7 C 21,4 C 0,0 km/h (0 Bft)
02.07.2010 21:55 25,6 C 22,8 C 24,1 C 24,1 C 21,2 C 0,0 C 59 % 62 % 0 % 1015,5 hPa 0,0 l/m 0,3 km/h (0 Bft) W-SW 247 0 min 0,0 UV-I 17,0 C 21,2 C 1,6 km/h (1 Bft)
02.07.2010 22:00 25,5 C 22,9 C 24,1 C 24,0 C 20,9 C 0,0 C 61 % 62 % 0 % 1015,6 hPa 0,0 l/m 0,3 km/h (0 Bft) W-SW 247 0 min 0,0 UV-I 17,4 C 20,9 C 0,0 km/h (0 Bft)
02.07.2010 22:06 25,0 C 22,8 C 24,1 C 23,5 C 20,4 C 0,0 C 62 % 62 % 0 % 1015,6 hPa 0,0 l/m 0,0 km/h (0 Bft) N 0 0 min 0,0 UV-I 17,2 C 20,4 C 0,0 km/h (0 Bft)
02.07.2010 22:10 25,0 C 22,8 C 24,1 C 23,5 C 20,4 C 0,0 C 62 % 62 % 0 % 1015,6 hPa 0,0 l/m 0,0 km/h (0 Bft) W-SW 247 0 min 0,0 UV-I 17,2 C 20,4 C 0,0 km/h (0 Bft)
02.07.2010 22:15 24,8 C 22,8 C 24,1 C 23,3 C 20,2 C 0,0 C 62 % 62 % 0 % 1015,6 hPa 0,0 l/m 0,0 km/h (0 Bft) W-SW 247 0 min 0,0 UV-I 17,0 C 20,2 C 0,0 km/h (0 Bft)
02.07.2010 22:20 24,6 C 22,8 C 24,1 C 23,1 C 20,0 C 0,0 C 63 % 62 % 0 % 1016,0 hPa 0,0 l/m 0,0 km/h (0 Bft) W-SW 247 0 min 0,0 UV-I 17,1 C 20,0 C 0,0 km/h (0 Bft)
02.07.2010 22:25 24,5 C 22,8 C 24,1 C 22,9 C 19,8 C 0,0 C 63 % 62 % 0 % 1016,0 hPa 0,0 l/m 0,0 km/h (0 Bft) W-SW 247 0 min 0,0 UV-I 17,0 C 19,8 C 0,0 km/h (0 Bft)
02.07.2010 22:30 24,5 C 22,8 C 24,1 C 22,9 C 19,7 C 0,0 C 63 % 62 % 0 % 1016,0 hPa 0,0 l/m 0,0 km/h (0 Bft) W-SW 247 0 min 0,0 UV-I 17,0 C 19,7 C 0,0 km/h (0 Bft)
02.07.2010 22:35 24,3 C 22,9 C 21,9 C 22,7 C 19,6 C 0,0 C 63 % 72 % 0 % 1016,0 hPa 0,0 l/m 0,0 km/h (0 Bft) W-SW 247 0 min 0,0 UV-I 16,8 C 19,6 C 0,0 km/h (0 Bft)
02.07.2010 22:40 24,2 C 22,9 C 21,7 C 22,6 C 19,5 C 0,0 C 64 % 72 % 0 % 1016,0 hPa 0,0 l/m 0,2 km/h (0 Bft) W-SW 247 0 min 0,0 UV-I 16,9 C 19,5 C 0,0 km/h (0 Bft)
02.07.2010 22:45 24,3 C 22,9 C 21,7 C 22,6 C 19,3 C 0,0 C 64 % 73 % 0 % 1016,0 hPa 0,0 l/m 0,2 km/h (0 Bft) W-SW 247 0 min 0,0 UV-I 17,0 C 19,3 C 0,0 km/h (0 Bft)
02.07.2010 22:50 24,0 C 22,9 C 21,7 C 22,4 C 19,2 C 0,0 C 64 % 73 % 0 % 1016,0 hPa 0,0 l/m 0,0 km/h (0 Bft) W-SW 247 0 min 0,0 UV-I 16,8 C 19,2 C 1,9 km/h (1 Bft)
02.07.2010 22:55 23,7 C 22,9 C 21,7 C 22,2 C 19,1 C 0,0 C 65 % 73 % 0 % 1016,0 hPa 0,0 l/m 0,2 km/h (0 Bft) O-NO 67 0 min 0,0 UV-I 16,7 C 19,1 C 0,0 km/h (0 Bft)
02.07.2010 23:00 23,6 C 22,8 C 21,7 C 22,1 C 19,1 C 0,0 C 66 % 73 % 0 % 1016,0 hPa 0,0 l/m 0,2 km/h (0 Bft) SW 225 0 min 0,0 UV-I 16,9 C 19,1 C 0,0 km/h (0 Bft)
02.07.2010 23:06 23,6 C 22,8 C 21,7 C 22,1 C 19,0 C 0,0 C 66 % 73 % 0 % 1016,0 hPa 0,0 l/m 0,0 km/h (0 Bft) N 0 0 min 0,0 UV-I 16,9 C 19,0 C 0,0 km/h (0 Bft)
02.07.2010 23:10 23,6 C 22,8 C 20,9 C 22,0 C 18,8 C 0,0 C 66 % 75 % 0 % 1016,0 hPa 0,0 l/m 0,2 km/h (0 Bft) W-SW 247 0 min 0,0 UV-I 16,9 C 18,8 C 0,0 km/h (0 Bft)
02.07.2010 23:15 23,5 C 22,8 C 20,9 C 21,9 C 18,8 C 0,0 C 66 % 75 % 0 % 1016,0 hPa 0,0 l/m 0,3 km/h (0 Bft) W-SW 247 0 min 0,0 UV-I 16,8 C 18,8 C 0,0 km/h (0 Bft)
02.07.2010 23:20 23,3 C 22,8 C 20,9 C 21,7 C 18,6 C 0,0 C 66 % 75 % 0 % 1016,2 hPa 0,0 l/m 0,2 km/h (0 Bft) W 270 0 min 0,0 UV-I 16,6 C 18,6 C 0,0 km/h (0 Bft)
02.07.2010 23:25 23,1 C 22,8 C 20,9 C 21,5 C 18,4 C 0,0 C 67 % 75 % 0 % 1016,2 hPa 0,0 l/m 0,0 km/h (0 Bft) W 270 0 min 0,0 UV-I 16,6 C 18,4 C 0,0 km/h (0 Bft)
02.07.2010 23:30 22,7 C 22,8 C 20,9 C 21,3 C 18,4 C 0,0 C 68 % 75 % 0 % 1016,2 hPa 0,0 l/m 0,0 km/h (0 Bft) W 270 0 min 0,0 UV-I 16,5 C 18,4 C 0,0 km/h (0 Bft)
02.07.2010 23:35 22,4 C 22,8 C 20,9 C 21,1 C 18,4 C 0,0 C 69 % 75 % 0 % 1016,2 hPa 0,0 l/m 0,0 km/h (0 Bft) W 270 0 min 0,0 UV-I 16,4 C 18,4 C 0,0 km/h (0 Bft)
02.07.2010 23:40 22,7 C 22,8 C 20,9 C 21,2 C 18,3 C 0,0 C 69 % 75 % 0 % 1016,1 hPa 0,0 l/m 0,2 km/h (0 Bft) S 180 0 min 0,0 UV-I 16,7 C 18,3 C 0,0 km/h (0 Bft)
02.07.2010 23:45 22,7 C 22,7 C 20,9 C 21,2 C 18,2 C 0,0 C 69 % 75 % 0 % 1016,1 hPa 0,0 l/m 0,3 km/h (0 Bft) S 180 0 min 0,0 UV-I 16,7 C 18,2 C 0,0 km/h (0 Bft)
02.07.2010 23:50 22,6 C 22,7 C 20,9 C 21,1 C 18,0 C 0,0 C 69 % 75 % 0 % 1016,1 hPa 0,0 l/m 0,2 km/h (0 Bft) S 180 0 min 0,0 UV-I 16,6 C 18,0 C 0,0 km/h (0 Bft)
02.07.2010 23:55 22,4 C 22,8 C 20,9 C 20,9 C 18,0 C 0,0 C 69 % 75 % 0 % 1016,1 hPa 0,0 l/m 0,0 km/h (0 Bft) S 180 0 min 0,0 UV-I 16,4 C 18,0 C 0,0 km/h (0 Bft)
_ Min-Zeit 04:55 10:00 05:25 04:55 05:20 00:00 17:15 15:50 00:00 17:20 - 00:00 - - - 00:00 11:25 05:20 00:00
Minimum _ 17,6 C 20,4 C 16,1 C 16,6 C 14,5 C 0,0 C 34 % 33 % 0 % 1015,0 hPa - 0,0 km/h (0 Bft) - - - 0,0 UV-I 12,9 C 14,5 C 0,0 km/h (0 Bft)
_ Max-Zeit 17:00 20:00 15:40 15:45 15:45 09:20 04:50 03:30 07:30 13:20 00:00 14:40 - - 17:10 13:40 09:20 15:45 14:30
Maximum _ 32,0 C 22,9 C 33,2 C 36,4 C 36,4 C 8,7 C 81 % 87 % 100 % 1016,2 hPa 0,0 l/m 6,1 km/h
O-NO (2 Bft)
- - 10 min 5,2 UV-I 18,5 C 36,4 C 10,9 km/h
O-NO (2 Bft)
Durchschnitt _ 25,1 C 21,6 C 23,5 C 26,9 C 25,8 C 2,4 C 58 % 64 % 45 % 1015,6 hPa #0,0 l/m 1,5 km/h (1 Bft) O-NO - #8:55 h 2,3 UV-I 15,6 C 25,8 C 2,0 km/h (1 Bft)
2010 www.wetterstation-wechselburg.de